Home > Weather > Gifhorn > Past weeks

Flag for Germany Past Weather in Gifhorn, Lower Saxony, Germany — Yesterday and Last 2 Weeks

Now
57 °F

Sunny.


Feels Like: 57 °F
Forecast: 49 / 80 °F
Wind: 2 mph from North

Location: Braunschweig Wolfsburg

Current Time: Aug 30, 2016 at 9:33:02 AM

Latest Report: Aug 30, 2016 at 8:50 AM


Visibility: 10 mi

Pressure: 30.30 "Hg

Humidity: 88%

Dew Point: 54 °F

Location of GifhornLocation

Past Weather in Gifhorn — Graph

°F

Gifhorn Temperature Yesterday

Maximum temperature yesterday: 70 °F (at 11:20 AM)
Minimum temperature yesterday: 59 °F (at 9:50 PM)
Average temperature yesterday: 66 °F

High & Low Weather Summary for the Past Weeks

 TemperatureHumidityPressure
High93 °F (Aug 26, 3:20 PM)100% (Aug 17, 6:50 AM)30.33 "Hg (Aug 17, 6:50 AM)
Low46 °F (Aug 17, 6:50 AM)21% (Aug 25, 4:50 PM)29.80 "Hg (Aug 18, 3:50 PM)
Average71 °F60%30.07 "Hg
* Reported Aug 15 8:20 AM — Aug 30 8:20 AM, Gifhorn, Weather by CustomWeather, © 2016

Note: Actual official high and low records may vary slightly from our data, if they occured in-between our weather recording intervals... More about our weather records

Advertising

Gifhorn Weather History for the Previous 24 Hours

Scroll right to see more
 ConditionsComfort  
Time TempWeatherWind HumidityBarometerVisibility
8:20 AM
Tue, Aug 30
55 °FSunny.No wind94%30.30 "Hg10 mi
7:50 AM54 °FSunny.No wind100%30.30 "Hg10 mi
7:20 AM52 °FClear.No wind94%30.27 "Hg10 mi
6:50 AM50 °FClear.5 mph94%30.27 "Hg10 mi
9:50 PM
Mon, Aug 29
59 °FClear.5 mph82%30.18 "Hg10 mi
9:20 PM61 °FClear.6 mph83%30.15 "Hg10 mi
8:50 PM61 °FSunny.3 mph77%30.15 "Hg10 mi
8:20 PM63 °FSunny.5 mph73%30.12 "Hg10 mi
7:50 PM64 °FScattered clouds.8 mph68%30.12 "HgN/A
7:20 PM66 °FScattered clouds.8 mph68%30.12 "HgN/A
6:50 PM66 °FPassing clouds.9 mph64%30.09 "HgN/A
6:20 PM66 °FPartly sunny.9 mph64%30.09 "HgN/A
5:50 PM68 °FBroken clouds.12 mph64%30.09 "HgN/A
5:20 PM68 °FPassing clouds.10 mph60%30.07 "HgN/A
4:50 PM70 °FPassing clouds.10 mph53%30.07 "HgN/A
4:20 PM70 °FScattered clouds.13 mph57%30.07 "HgN/A
3:50 PM66 °FMore clouds than sun.8 mph73%30.07 "HgN/A
3:20 PM66 °FPartly sunny.12 mph68%30.07 "HgN/A
2:50 PM68 °FBroken clouds.14 mph69%30.07 "HgN/A
2:20 PM70 °FScattered clouds.14 mph64%30.04 "HgN/A
1:20 PM64 °FBroken clouds.8 mph88%30.04 "HgN/A
12:50 PM63 °FRain. Mostly cloudy.18 mph88%30.04 "Hg4 mi
12:20 PM68 °FBroken clouds.13 mph69%30.01 "HgN/A
11:50 AM70 °FBroken clouds.13 mph64%30.01 "HgN/A
11:20 AM70 °FBroken clouds.15 mph64%30.01 "HgN/A
10:50 AM68 °FBroken clouds.12 mph69%30.01 "HgN/A
10:20 AM68 °FBroken clouds.13 mph69%30.01 "HgN/A
9:50 AM66 °FBroken clouds.15 mph73%29.98 "HgN/A
9:20 AM66 °FPartly sunny.15 mph73%29.98 "HgN/A
Weather by CustomWeather, © 2016

See weather overviewHow to use our weather pages